{"data":{"norad_id":22825,"epoch":"2026-09-20T03:58:20.997120Z","epoch_age_seconds":41062,"freshness":"FRESH","line1":"1 22825U 93061C   26263.16552080  .00000029  00000+0  28062-4 0  9996","line2":"2 22825  98.6789 330.5008 0008483 174.2728 185.8553 14.30962074720584","mean_motion":14.30962074,"eccentricity":0.0008483,"inclination_deg":98.6789,"raan_deg":330.5008,"arg_perigee_deg":174.2728,"mean_anomaly_deg":185.8553,"bstar":2.8062e-5,"rev_number":72058,"period_min":100.63159787141,"perigee_km":782.43733108675,"apogee_km":794.59627592978,"semimajor_km":7166.6538035083,"source":"CELESTRAK","updated_at":"2026-09-20T09:00:45.227027Z"}}